Weather in Krasnorechenskoye

Russia / Khabarovsk Krai     48°21′16″N   135°00′01″E
temp.,
°C
wind,
m/s
gust,
m/s
humid.,
%
clouds,
%
prec.,
mm/h
press.,
hPa
HPBL,
m
27 february, sat
sat2701:00−20ssw239413 0.0 103424
04:00−22ssw239611 0.0 103528
07:00−22s239713 0.0 103533
10:00−18ssw349330 0.0 1034150
13:00−12ssw238330 0.0 1033334
16:00−10s238364 0.0 1029405
19:00−11sse2290100 0.0 102529
22:00−11ssw2289100 0.0 102356
28 february, sun
sun2801:00−9ssw2488100 0.0 1020170
04:00−7sw41595100 1.4 1018722
07:00−5sw31396100 2.1 1018736
10:00−5w4792100 2.6 1018422
13:00−6w4885100 0.0 1020646
16:00−8w5979100 0.0 1021683
19:00−12wsw3586100 0.0 1024133
22:00−15w3488100 0.0 102676
1 march, mon
mon101:00−18w3589100 0.0 1026110
04:00−22w358758 0.0 102885
07:00−23wsw46860 0.0 1030105
10:00−19w510770 0.0 1032490
13:00−16w610650 0.0 1032973
16:00−14w610670 0.0 10321330
19:00−19sw358512 0.0 103379
22:00−21sw33869 0.0 103340
2 march, tue
tue201:00−22sw238897 0.0 103324
04:00−22wsw229392 0.0 103323
07:00−24wsw129587 0.0 103321
10:00−18wsw247543 0.0 1033255
13:00−16wnw48670 0.0 1031754
16:00−16wnw47700 0.0 1030696
19:00−21sw22830 0.0 103122
22:00−22sw22790 0.0 103220
3 march, wed
wed301:00−23sw22850 0.0 103120
04:00−24ssw12860 0.0 103020
07:00−25s22890 0.0 103022
10:00−19s23860 0.0 1029138
13:00−13sse24710 0.0 1026433
16:00−11s247550 0.0 1022509
19:00−13s1286100 0.0 102020
22:00−13sw1596100 0.2 1019216